• In France
  • List of Countries
  • For 7 days
  • Water Temperature
  • Satellite Maps
  • Weather Map
  • Weather Widgets
  • user-avatar
    Login

    Hourly Weather Tunja

    Today, 25 May, Friday

    Time Temperature Precipitation Wind Pressure Humidity
    00:00 +11°C° 1 mm 1 mps 550 mmHg 95%
    01:00 +11°C° 1 mm 1 mps 550 mmHg 95%
    02:00 +11°C° 0.3 mm 1 mps 550 mmHg 95%
    03:00 +11°C° 0.3 mm 1 mps 550 mmHg 95%
    04:00 +11°C° 0.3 mm 1 mps 549 mmHg 94%
    05:00 +11°C° 0.1 mm 1 mps 550 mmHg 94%
    06:00 +12°C° 0.1 mm 1 mps 550 mmHg 93%
    07:00 +12°C° 0.1 mm 1 mps 550 mmHg 92%
    08:00 +13°C° 0.2 mm 1 mps 551 mmHg 86%
    09:00 +15°C° 0.2 mm 2 mps 552 mmHg 81%
    10:00 +16°C° 0.2 mm 2 mps 553 mmHg 76%
    11:00 +16°C° 0.6 mm 2 mps 552 mmHg 77%
    12:00 +16°C° 0.6 mm 2 mps 552 mmHg 78%
    13:00 +16°C° 0.6 mm 2 mps 551 mmHg 79%
    14:00 +15°C° 1.1 mm 2 mps 550 mmHg 83%
    15:00 +15°C° 1.1 mm 2 mps 550 mmHg 87%
    16:00 +14°C° 1.1 mm 2 mps 549 mmHg 90%
    17:00 +13°C° 1.2 mm 1 mps 549 mmHg 92%
    18:00 +13°C° 1.2 mm 1 mps 549 mmHg 94%
    19:00 +12°C° 1.2 mm 1 mps 549 mmHg 96%
    20:00 +12°C° 1 mm 1 mps 549 mmHg 96%
    21:00 +11°C° 1 mm 1 mps 550 mmHg 96%
    22:00 +11°C° 1 mm 1 mps 550 mmHg 96%
    23:00 +11°C° 0.8 mm 1 mps 550 mmHg 96%

    Tomorrow, 26 May, Saturday

    Time Temperature Precipitation Wind Pressure Humidity
    00:00 +11°C° 0.8 mm 1 mps 549 mmHg 96%
    01:00 +11°C° 0.8 mm 1 mps 549 mmHg 96%
    02:00 +11°C° 0.5 mm 1 mps 549 mmHg 96%
    03:00 +11°C° 0.5 mm 1 mps 549 mmHg 95%
    04:00 +10°C° 0.5 mm 1 mps 549 mmHg 95%
    05:00 +11°C° 0.7 mm 1 mps 549 mmHg 95%
    06:00 +11°C° 0.7 mm 1 mps 549 mmHg 94%
    07:00 +11°C° 0.7 mm 1 mps 550 mmHg 93%
    08:00 +12°C° 0.6 mm 1 mps 551 mmHg 90%
    09:00 +13°C° 0.6 mm 1 mps 551 mmHg 86%
    10:00 +14°C° 0.6 mm 1 mps 552 mmHg 82%
    11:00 +14°C° 0.7 mm 1 mps 551 mmHg 83%
    12:00 +14°C° 0.7 mm 1 mps 551 mmHg 84%
    13:00 +14°C° 0.7 mm 1 mps 550 mmHg 84%
    14:00 +14°C° 0.6 mm 1 mps 550 mmHg 85%
    15:00 +14°C° 0.6 mm 1 mps 549 mmHg 86%
    16:00 +14°C° 0.6 mm 1 mps 549 mmHg 86%
    17:00 +13°C° 0.4 mm 1 mps 549 mmHg 89%
    18:00 +12°C° 0.4 mm 1 mps 549 mmHg 91%
    19:00 +12°C° 0.4 mm 1 mps 549 mmHg 94%
    20:00 +11°C° 0.4 mm 1 mps 549 mmHg 94%
    21:00 +11°C° 0.4 mm 1 mps 549 mmHg 94%
    22:00 +11°C° 0.4 mm 1 mps 550 mmHg 94%
    23:00 +11°C° 0.5 mm 1 mps 549 mmHg 94%

    Day after tomorrow, 27 May, Sunday

    Time Temperature Precipitation Wind Pressure Humidity
    00:00 +11°C° 0.5 mm 1 mps 549 mmHg 94%
    01:00 +11°C° 0.5 mm 1 mps 549 mmHg 93%
    02:00 +10°C° 1.2 mm 1 mps 549 mmHg 93%
    03:00 +10°C° 1.2 mm 1 mps 549 mmHg 93%
    04:00 +10°C° 1.2 mm 1 mps 548 mmHg 93%
    05:00 +10°C° 1.8 mm 1 mps 549 mmHg 93%
    06:00 +11°C° 1.8 mm 1 mps 549 mmHg 93%
    07:00 +11°C° 1.8 mm 1 mps 550 mmHg 92%
    08:00 +12°C° 1.3 mm 1 mps 550 mmHg 90%
    09:00 +13°C° 1.3 mm 1 mps 551 mmHg 88%
    10:00 +13°C° 1.3 mm 1 mps 552 mmHg 86%
    11:00 +14°C° 0.8 mm 1 mps 552 mmHg 84%
    12:00 +15°C° 0.8 mm 1 mps 552 mmHg 82%
    13:00 +15°C° 0.8 mm 1 mps 552 mmHg 80%
    14:00 +15°C° 0.6 mm 1 mps 551 mmHg 81%
    15:00 +15°C° 0.6 mm 1 mps 550 mmHg 82%
    16:00 +15°C° 0.6 mm 1 mps 550 mmHg 82%
    17:00 +14°C° 0.2 mm 1 mps 550 mmHg 87%
    18:00 +13°C° 0.2 mm 1 mps 549 mmHg 91%
    19:00 +12°C° 0.2 mm 1 mps 549 mmHg 95%
    20:00 +11°C° 0.2 mm 1 mps 549 mmHg 95%
    21:00 +11°C° 0.2 mm 1 mps 550 mmHg 95%
    22:00 +11°C° 0.2 mm 1 mps 550 mmHg 95%
    23:00 +11°C° 0.3 mm 1 mps 550 mmHg 94%

    28 May, Monday

    Time Temperature Precipitation Wind Pressure Humidity
    00:00 +11°C° 0.3 mm 1 mps 550 mmHg 94%
    01:00 +11°C° 0.3 mm 1 mps 549 mmHg 94%
    02:00 +10°C° 0.2 mm 1 mps 549 mmHg 94%
    03:00 +10°C° 0.2 mm 1 mps 549 mmHg 94%
    04:00 +10°C° 0.2 mm 1 mps 548 mmHg 94%
    05:00 +10°C° 0.1 mm 1 mps 549 mmHg 92%
    06:00 +11°C° 0.1 mm 1 mps 550 mmHg 91%
    07:00 +12°C° 0.1 mm 1 mps 550 mmHg 89%
    08:00 +13°C° 0.1 mm 1 mps 551 mmHg 83%
    09:00 +15°C° 0.1 mm 1 mps 552 mmHg 77%
    10:00 +16°C° 0.1 mm 1 mps 553 mmHg 72%
    11:00 +16°C° 0.4 mm 1 mps 553 mmHg 74%
    12:00 +16°C° 0.4 mm 1 mps 552 mmHg 77%
    13:00 +16°C° 0.4 mm 1 mps 551 mmHg 79%
    14:00 +15°C° 1.1 mm 1 mps 551 mmHg 83%
    15:00 +15°C° 1.1 mm 1 mps 550 mmHg 88%
    16:00 +14°C° 1.1 mm 1 mps 550 mmHg 92%
    17:00 +13°C° 1.4 mm 1 mps 550 mmHg 94%
    18:00 +13°C° 1.4 mm 1 mps 550 mmHg 95%
    19:00 +12°C° 1.4 mm 1 mps 550 mmHg 97%
    20:00 +11°C° 1.2 mm 0 mps 550 mmHg 97%
    21:00 +11°C° 1.2 mm 0 mps 551 mmHg 97%
    22:00 +11°C° 1.2 mm 0 mps 551 mmHg 97%
    23:00 +11°C° 0.3 mm 0 mps 551 mmHg 97%

    29 May, Tuesday

    Time Temperature Precipitation Wind Pressure Humidity
    00:00 +10°C° 0.3 mm 0 mps 550 mmHg 98%
    01:00 +10°C° 0.3 mm 0 mps 550 mmHg 98%
    02:00 +10°C° 0.2 mm 0 mps 550 mmHg 98%
    03:00 +10°C° 0.2 mm 0 mps 549 mmHg 98%
    04:00 +10°C° 0.2 mm 0 mps 549 mmHg 98%
    05:00 +10°C° 0.3 mm 0 mps 550 mmHg 97%
    06:00 +11°C° 0.3 mm 0 mps 550 mmHg 96%
    07:00 +11°C° 0.3 mm 0 mps 551 mmHg 95%
    08:00 +12°C° 0.9 mm 0 mps 552 mmHg 90%
    09:00 +14°C° 0.9 mm 1 mps 552 mmHg 86%
    10:00 +15°C° 0.9 mm 1 mps 553 mmHg 81%
    11:00 +15°C° 2 mm 1 mps 552 mmHg 85%
    12:00 +14°C° 2 mm 1 mps 552 mmHg 89%
    13:00 +13°C° 2 mm 1 mps 551 mmHg 93%
    14:00 +13°C° 1.9 mm 1 mps 550 mmHg 95%
    15:00 +12°C° 1.9 mm 1 mps 550 mmHg 96%
    16:00 +12°C° 1.9 mm 1 mps 549 mmHg 97%
    17:00 +12°C° 0.9 mm 1 mps 549 mmHg 97%
    18:00 +10°C° 0.9 mm 0 mps 549 mmHg 97%
    19:00 +10°C° 0.9 mm 0 mps 550 mmHg 97%
    20:00 +10°C° 0.6 mm 0 mps 550 mmHg 97%
    21:00 +10°C° 0.6 mm 0 mps 550 mmHg 96%
    22:00 +10°C° 0.6 mm 0 mps 550 mmHg 96%
    23:00 +9°C° 0.4 mm 0 mps 550 mmHg 96%

    30 May, Wednesday

    Time Temperature Precipitation Wind Pressure Humidity
    00:00 +9°C° 0.4 mm 0 mps 549 mmHg 96%
    01:00 +9°C° 0.4 mm 0 mps 549 mmHg 96%
    02:00 +9°C° 0.4 mm 0 mps 549 mmHg 96%
    03:00 +9°C° 0.4 mm 0 mps 549 mmHg 95%
    04:00 +9°C° 0.4 mm 0 mps 548 mmHg 95%
    05:00 +9°C° 0.5 mm 0 mps 549 mmHg 95%
    06:00 +10°C° 0.5 mm 0 mps 550 mmHg 94%
    07:00 +10°C° 0.5 mm 0 mps 550 mmHg 93%
    08:00 +12°C° 0.7 mm 1 mps 551 mmHg 90%
    09:00 +13°C° 0.7 mm 1 mps 551 mmHg 86%
    10:00 +14°C° 0.7 mm 1 mps 552 mmHg 83%
    11:00 +14°C° 1.1 mm 1 mps 552 mmHg 84%
    12:00 +14°C° 1.1 mm 1 mps 551 mmHg 85%
    13:00 +14°C° 1.1 mm 1 mps 551 mmHg 86%
    14:00 +13°C° 1.3 mm 1 mps 550 mmHg 88%
    15:00 +13°C° 1.3 mm 1 mps 550 mmHg 90%
    16:00 +13°C° 1.3 mm 1 mps 549 mmHg 92%
    17:00 +11°C° 0.8 mm 0 mps 549 mmHg 93%
    18:00 +11°C° 0.8 mm 0 mps 549 mmHg 95%
    19:00 +10°C° 0.8 mm 0 mps 549 mmHg 97%
    20:00 +10°C° 0.3 mm 0 mps 550 mmHg 96%
    21:00 +10°C° 0.3 mm 0 mps 550 mmHg 96%
    22:00 +10°C° 0.3 mm 0 mps 550 mmHg 95%
    23:00 +10°C° 0.3 mm 1 mps 549 mmHg 95%
    Show more